Dewpoint
65 65 64 64 63 63 62 62 62 61 61 60 59 58 57 56 55 54 54 52 51 49 48 46 46 46 46 47 45 45 45 45 45 44 44 44 44 43 43 43 42 43 44 43 42 41 42 41 41 43 44 42 41 41 41 41 40 38 40 37 37 39 37 37 35 36 38 41 39 39 38 40 31 33 30 32 31 30 34 28 30 29 30 31 33
65 65 64 64 63 62 62 62 61 61 60 59 58 57 57 56 55 54 52 51 50 48 47 46 46 45 45 45 45 45 45 44 45 45 44 43 43 44 42 41 41 42 41 41 43 43 41 39 39 42 42 39 40 40 39 38 37 37 38 38 36 39 39 37 36 36 35 37 37 37 37 39 33 32 31 31 31 32 27 26 27 27 29 31 33
65 64 64 63 63 62 62 61 61 59 58 58 57 57 56 55 54 53 52 51 50 48 47 46 45 44 44 44 44 44 44 44 45 44 43 42 42 43 42 40 41 41 40 41 40 40 40 42 41 41 42 40 41 42 42 41 39 38 39 40 40 39 41 40 38 37 36 36 38 36 36 37 35 29 29 31 32 30 25 25 27 30 32 32 34
64 64 63 63 63 62 62 61 59 58 57 57 57 56 55 54 54 52 51 51 48 48 46 45 44 43 44 43 43 43 44 45 43 42 42 42 42 41 41 42 41 41 40 40 41 42 42 41 41 42 43 41 41 40 41 41 39 39 39 40 40 39 41 40 40 37 36 35 36 34 38 35 33 29 32 30 30 27 25 27 28 30 31 33 33
64 64 63 63 62 62 61 60 59 58 57 57 56 55 54 53 53 52 51 49 48 46 46 44 43 43 44 43 43 43 44 43 42 41 42 42 41 41 41 40 41 40 40 42 45 40 41 40 41 41 42 41 41 41 41 41 41 39 37 39 38 40 41 40 41 40 36 35 36 38 38 34 35 31 29 29 29 26 27 29 31 31 31 32 34
64 63 63 62 62 61 60 59 58 57 57 56 55 55 54 53 53 52 50 48 47 45 44 43 42 41 42 42 42 43 43 42 41 42 42 41 40 40 41 41 41 41 42 43 42 43 42 41 43 43 41 41 41 41 41 41 41 38 39 37 38 39 39 39 38 37 35 33 33 36 35 35 30 31 29 32 30 29 28 30 31 32 33 32 33
63 63 62 62 61 61 60 58 58 57 57 56 55 55 54 53 52 50 49 48 46 44 43 42 42 41 41 42 43 43 42 42 42 42 41 40 40 40 41 40 40 41 41 41 42 43 43 42 40 39 39 39 38 38 38 39 41 38 40 37 37 38 38 36 35 34 32 31 32 35 33 35 33 29 30 34 29 30 31 31 32 32 33 32 33
62 62 62 61 61 60 59 58 57 57 57 56 55 54 54 53 51 50 49 47 45 43 42 41 41 40 41 41 42 42 41 41 40 40 40 40 41 41 40 39 39 40 41 42 42 41 37 36 35 35 35 36 35 36 36 37 38 34 36 36 37 36 35 35 34 33 32 32 34 34 34 34 32 33 36 33 30 31 33 34 33 32 32 32 32
62 62 62 61 61 60 58 58 57 57 56 56 55 54 53 52 51 49 49 47 46 43 42 42 40 40 41 41 41 41 41 42 41 40 40 40 40 40 39 40 40 41 41 42 40 36 35 35 34 34 41 42 41 40 40 40 35 30 33 35 36 34 33 34 34 33 33 33 34 35 34 33 33 33 31 30 30 31 33 34 34 33 32 32 32
62 61 61 61 60 59 58 57 57 56 56 55 54 53 52 52 50 49 48 46 45 43 42 42 40 40 41 41 40 42 42 43 45 44 43 40 39 40 41 40 40 40 41 40 36 35 34 35 41 40 37 37 38 39 39 40 39 34 32 33 33 32 32 31 31 34 34 32 33 34 34 33 33 32 32 32 33 35 34 34 33 33 32 31 32
61 61 61 61 59 58 57 57 56 56 55 55 54 53 52 51 49 49 48 46 45 44 42 41 40 41 41 41 40 42 43 43 42 39 39 41 41 40 40 40 40 40 41 39 34 32 32 34 36 37 38 39 37 38 38 37 37 40 40 38 40 32 29 29 30 33 35 32 34 34 34 34 33 33 33 33 34 35 34 35 34 33 31 31 30
61 61 61 60 59 58 57 56 56 56 55 55 54 53 52 50 49 48 47 45 45 44 42 41 42 41 42 41 41 43 43 44 38 38 39 39 42 41 40 40 40 40 41 37 33 31 30 33 36 39 36 37 36 34 35 34 34 35 36 37 36 37 41 35 35 30 32 31 32 33 34 34 34 34 34 34 34 35 35 35 34 33 31 31 32
61 61 60 59 58 58 57 56 56 55 55 55 54 53 50 49 48 48 47 46 46 44 43 42 42 42 42 42 42 43 40 39 38 38 38 39 40 41 40 40 40 40 40 36 31 29 29 32 36 39 39 41 42 34 33 33 38 38 38 39 39 36 32 33 37 37 35 34 33 34 34 34 34 34 35 35 36 36 35 35 34 34 33 32 32
60 60 60 59 58 57 57 56 55 55 55 54 53 52 50 48 48 48 48 47 46 44 44 43 43 43 42 42 41 40 40 40 38 38 38 38 38 40 41 40 40 40 40 37 32 29 28 31 38 41 41 43 41 36 35 35 34 33 34 34 34 37 39 36 34 35 38 35 33 32 33 37 35 36 37 37 37 36 36 34 35 34 34 33 33
60 59 59 58 58 57 56 56 55 55 55 54 53 51 50 48 48 48 47 47 46 45 44 44 44 44 43 41 39 41 42 38 38 37 37 38 40 41 41 42 41 40 40 39 35 34 34 37 39 37 36 38 39 39 38 38 38 39 39 40 38 36 35 35 34 33 35 35 32 32 33 34 36 37 37 37 37 36 36 35 35 35 35 36 35
60 59 58 58 57 57 56 55 55 55 55 54 52 51 50 48 48 48 47 47 47 46 46 45 45 44 43 40 40 41 41 37 37 37 37 37 39 43 44 41 41 40 40 39 38 39 40 39 38 35 34 35 40 39 38 37 37 37 39 39 40 41 40 42 38 36 36 35 35 34 35 37 38 37 37 36 35 34 36 36 35 34 34 33 30
59 59 58 58 57 57 56 55 55 54 54 53 51 50 50 48 48 48 47 47 46 46 46 46 45 45 43 41 40 39 38 38 37 37 37 38 40 43 44 42 41 41 41 40 40 40 41 41 40 37 34 31 35 33 35 39 34 35 37 39 40 40 38 42 40 37 38 38 38 38 37 36 36 36 36 37 37 37 35 34 32 33 33 30 30
59 58 58 57 57 57 56 55 55 54 54 53 51 50 50 48 47 47 46 46 46 46 47 46 46 45 42 40 39 39 40 40 37 37 38 38 40 40 42 41 40 40 41 40 40 39 41 45 45 37 31 29 34 33 35 37 34 36 37 38 39 38 33 34 40 40 40 39 38 36 37 37 37 37 38 39 39 39 35 32 32 33 32 31 30
59 59 58 58 57 57 56 55 55 55 55 54 53 50 49 47 47 47 47 47 46 47 47 46 46 46 43 42 45 42 42 40 37 37 38 37 40 40 42 40 40 39 40 39 39 41 39 46 48 41 35 34 33 33 35 38 34 36 35 37 38 36 29 32 33 33 33 32 30 33 34 36 37 37 39 40 40 42 37 34 34 34 31 31 31
59 59 59 58 57 57 56 56 55 54 53 54 54 50 48 47 47 48 47 47 47 47 47 48 47 46 44 43 42 41 41 39 38 37 37 37 39 41 41 40 39 40 39 38 38 39 40 40 40 37 35 33 33 33 35 36 33 35 35 34 36 37 33 31 34 34 32 33 32 34 35 35 36 37 38 36 38 39 38 37 37 36 31 30 32
59 59 58 58 57 56 56 56 55 54 54 55 53 49 47 47 48 49 48 47 47 47 47 47 46 46 44 43 41 41 41 39 38 37 37 37 38 39 39 40 40 40 40 40 37 39 39 38 37 34 32 32 32 33 34 35 37 36 34 32 37 35 33 31 34 37 33 35 35 35 34 34 34 35 36 34 36 36 37 37 38 36 34 32 31
58 58 57 57 56 55 54 56 55 54 53 54 50 48 47 47 48 48 46 46 46 47 46 45 45 45 44 43 42 42 44 41 37 37 36 37 37 38 39 40 41 40 39 40 38 38 39 37 37 35 32 32 32 33 33 34 35 37 35 34 35 34 33 36 34 34 34 34 33 33 33 33 33 34 36 35 35 37 35 36 37 35 34 34 34
58 57 57 56 55 54 53 54 53 52 52 51 48 47 47 47 47 45 46 46 46 46 45 44 43 44 45 45 45 43 43 42 38 37 37 36 36 37 38 39 38 42 40 39 39 38 39 39 38 38 33 33 32 33 33 34 35 33 34 34 34 34 34 34 33 33 32 31 32 32 32 33 34 34 34 33 32 34 35 36 36 35 34 35 36
58 57 56 55 53 53 53 53 52 51 50 49 47 47 46 46 45 45 46 45 45 45 44 44 44 44 45 45 45 45 44 43 39 37 37 36 35 36 37 39 37 39 38 37 35 35 37 39 39 36 34 33 33 32 33 34 32 33 34 34 34 34 33 32 31 31 31 32 32 32 32 33 34 34 34 33 32 34 36 36 36 35 34 34 34
57 56 55 53 52 51 51 51 50 50 49 48 47 46 46 46 45 45 45 45 45 45 46 45 45 45 45 43 44 43 43 40 38 37 36 36 35 35 35 35 36 35 35 38 35 34 34 34 37 36 33 33 33 32 33 34 33 33 33 34 36 33 32 31 31 32 30 30 30 32 32 33 33 33 34 34 35 37 35 35 33 33 34 35 34
55 53 52 51 51 50 50 50 49 49 48 48 47 46 46 45 45 45 44 45 46 47 46 45 44 42 43 42 43 43 42 39 37 36 37 37 35 34 34 34 36 36 37 37 34 34 34 34 34 34 33 32 33 32 31 32 33 34 34 34 33 32 32 31 30 31 29 29 31 32 32 32 33 34 34 35 33 33 34 32 31 31 33 33 32
52 51 51 50 50 50 49 49 48 48 48 47 47 47 46 45 45 44 44 44 44 44 43 42 42 41 42 42 42 42 42 40 37 35 35 35 34 35 35 34 36 36 37 35 34 33 33 33 32 32 32 33 32 33 32 34 34 35 33 33 33 32 32 31 29 29 30 31 32 33 33 34 35 33 32 31 31 33 33 32 32 31 33 33 33
51 50 49 49 49 49 48 44 46 47 47 47 46 46 46 46 44 44 43 43 43 42 41 41 41 41 41 42 41 41 41 41 39 37 35 34 34 34 34 36 35 35 34 34 33 36 33 34 34 33 33 33 32 32 33 34 35 34 35 35 35 35 37 37 37 33 32 32 32 33 33 34 33 32 33 31 31 34 33 32 32 32 33 33 31
50 50 49 48 48 47 47 47 47 47 46 46 46 46 45 45 45 44 44 43 43 42 41 40 40 40 40 41 40 41 39 42 43 38 37 35 34 34 35 35 35 34 35 35 36 37 34 32 31 31 30 30 30 31 31 31 31 32 32 32 30 31 33 34 34 34 34 33 33 32 32 33 32 33 31 30 32 33 32 31 31 32 31 32 30
50 49 48 48 47 47 47 47 47 46 46 45 45 46 42 42 43 43 42 41 39 38 38 39 39 39 39 39 40 39 39 41 39 38 37 35 35 35 35 35 35 35 35 34 35 33 34 32 32 31 31 30 30 31 31 31 30 29 29 31 30 29 29 30 31 32 32 32 32 32 32 31 31 31 31 30 32 33 33 31 31 32 30 30 30
50 49 48 47 46 46 46 46 46 46 45 45 45 44 44 42 39 39 40 39 38 37 37 37 37 36 38 37 37 37 37 38 38 38 37 36 35 35 35 35 35 35 34 33 32 32 31 31 31 31 31 32 31 31 31 30 30 29 29 29 30 30 30 31 30 31 32 32 32 33 33 31 30 30 30 30 31 31 32 32 32 33 30 31 30
49 48 48 47 45 45 46 46 46 46 45 45 44 44 43 42 40 36 38 38 37 37 37 36 36 35 35 36 38 37 36 37 38 38 37 37 36 35 35 35 35 35 34 33 31 31 30 30 29 28 28 29 30 30 29 29 28 28 29 30 30 31 31 31 31 32 32 31 30 29 30 30 30 30 30 30 29 30 31 31 31 30 30 30 30
49 48 47 46 46 45 45 45 45 45 45 44 44 43 43 41 40 38 37 37 37 37 37 36 35 35 34 35 36 35 36 36 37 38 37 37 36 35 35 35 35 35 34 32 31 30 29 29 28 27 26 27 28 29 29 29 29 29 28 29 30 30 30 31 30 31 31 31 30 30 30 30 31 31 30 29 28 28 30 29 29 29 30 29 30
49 48 46 46 46 46 46 46 45 45 46 46 44 43 43 43 44 43 41 39 35 33 33 34 35 35 35 35 35 35 35 36 36 37 37 37 36 35 35 34 35 35 33 32 31 31 29 27 27 28 29 29 29 30 31 31 31 30 30 30 30 31 30 31 31 31 30 29 29 30 30 30 30 30 30 29 29 29 30 30 29 27 29 29 29
50 43 40 43 47 47 47 48 48 48 48 48 47 44 43 42 43 42 40 39 37 35 33 32 33 33 32 33 35 34 35 36 36 36 36 36 35 35 34 32 31 31 32 31 29 29 28 27 26 26 29 31 31 31 31 32 31 30 30 29 29 29 29 29 29 30 31 31 31 31 31 31 31 30 30 30 29 28 29 29 29 28 28 29 29
48 48 48 46 47 48 48 48 48 47 47 47 46 45 44 43 42 42 41 41 38 35 33 32 31 31 33 33 34 34 35 35 36 36 35 35 34 33 31 30 30 30 30 29 27 27 26 25 24 24 26 27 28 28 28 29 30 29 28 28 28 28 27 27 27 27 30 32 32 32 32 31 31 31 30 29 31 31 30 30 29 29 29 29 29
49 49 48 49 49 48 48 48 48 47 45 45 47 47 46 45 43 43 40 39 40 41 37 32 32 33 33 35 34 34 34 35 35 35 35 34 33 32 31 29 29 28 28 27 27 27 25 25 25 24 25 26 26 26 28 29 29 29 30 28 28 28 27 27 28 29 29 30 31 31 30 30 30 30 28 26 29 29 29 28 28 29 29 30 29
50 49 49 49 49 48 48 48 48 42 45 47 48 47 46 45 42 43 42 41 41 38 35 33 32 29 29 31 37 33 32 34 34 34 34 33 32 30 29 28 28 27 27 27 27 27 26 25 25 23 23 25 25 25 24 24 25 26 28 27 26 26 29 28 30 31 32 31 30 30 30 30 30 29 29 28 29 29 29 29 28 28 29 29 28
50 44 42 42 43 48 48 47 45 46 46 46 46 45 42 42 40 41 41 41 39 37 35 34 31 30 29 33 32 34 32 31 31 30 31 31 30 29 28 28 27 27 27 27 28 27 26 24 25 25 26 27 28 27 26 24 25 25 27 27 27 27 27 28 28 29 30 30 30 30 30 30 30 30 30 29 29 29 29 29 29 29 29 29 29
49 46 43 41 45 46 47 44 46 46 45 46 46 44 41 40 40 39 40 40 38 37 36 35 33 32 31 33 31 31 28 29 29 29 30 30 30 29 28 28 28 27 27 26 27 27 26 24 24 25 26 27 28 29 30 30 31 30 30 29 29 29 30 30 30 30 30 30 30 30 30 30 30 30 30 30 30 30 30 29 29 29 29 27 28
49 47 42 43 44 46 45 46 45 46 46 45 45 43 42 40 40 39 40 39 38 37 37 37 35 34 32 32 32 30 27 28 29 29 30 29 29 29 28 28 27 26 26 26 26 27 27 27 27 27 28 28 28 29 29 30 30 30 29 29 30 29 29 29 31 31 31 31 31 30 30 31 31 30 29 29 31 30 29 29 29 28 29 28 28
48 46 46 45 44 46 45 44 45 45 44 44 44 44 42 41 41 40 39 38 37 38 39 39 38 41 34 33 33 32 28 28 29 29 30 30 29 29 29 28 28 26 26 26 27 29 30 30 30 30 31 31 31 31 31 31 31 30 30 30 29 29 29 29 30 31 31 31 31 31 30 30 30 30 30 32 29 29 28 28 28 29 28 29 29
47 46 46 46 46 46 45 45 46 46 45 44 44 43 44 43 42 41 40 39 38 39 40 39 39 38 37 33 32 32 30 30 30 30 29 30 30 29 29 29 28 28 28 30 31 32 32 33 33 33 33 33 33 33 33 33 32 31 30 30 30 30 30 31 31 31 31 31 31 31 31 30 30 30 30 30 30 29 29 29 28 28 29 29 29
46 45 45 45 46 46 45 45 47 46 46 43 45 43 44 43 43 42 42 42 40 38 39 41 40 38 35 33 32 32 31 31 31 30 30 31 31 30 30 29 29 29 30 31 34 35 34 34 34 34 35 35 35 36 34 33 32 31 30 29 29 30 31 31 31 31 31 31 31 31 31 30 30 30 30 30 29 29 29 28 28 29 29 29 30
48 47 46 46 46 47 46 45 44 44 43 42 45 45 43 43 43 43 43 42 40 41 40 41 41 39 35 33 32 32 32 31 31 31 31 31 31 31 31 31 31 30 30 30 32 34 34 34 34 34 34 34 35 36 35 32 30 29 29 29 30 30 30 31 31 31 31 31 31 31 31 30 30 30 30 30 30 29 29 29 29 29 29 28 28
50 47 46 47 48 47 45 46 43 45 44 43 44 45 44 43 43 43 44 45 43 42 42 42 40 38 35 33 33 32 32 32 32 32 31 32 32 32 32 32 32 32 31 31 31 32 32 33 33 33 33 33 34 34 36 35 34 33 32 31 30 30 30 31 31 31 31 31 30 30 30 30 30 30 30 30 30 30 29 29 27 29 29 29 29
50 49 49 48 48 48 48 47 45 45 45 45 44 46 45 44 44 43 41 43 44 41 43 43 40 38 38 35 33 33 33 33 34 34 33 33 33 34 34 34 33 33 32 32 31 31 32 32 33 33 33 33 34 34 34 33 33 33 34 34 34 34 33 32 32 32 32 32 31 30 30 30 30 30 30 30 30 30 29 30 29 29 29 29 29
48 47 47 47 48 49 48 47 46 42 46 45 46 46 45 46 46 44 44 45 44 44 44 43 43 43 41 41 38 35 34 34 36 36 35 34 35 35 35 35 34 33 33 32 32 31 31 32 33 33 33 33 33 33 34 34 33 32 32 32 32 33 34 33 34 34 34 33 32 32 31 31 30 30 30 31 30 30 30 30 30 30 29 29 29
49 49 48 48 48 49 47 47 46 44 46 46 45 45 45 45 45 45 45 45 45 45 46 45 44 43 42 40 38 36 36 35 36 36 35 32 32 33 33 33 33 33 32 31 31 31 31 31 33 33 34 34 34 33 33 33 33 33 33 32 31 31 31 31 31 31 32 32 33 33 33 32 32 31 31 31 31 31 31 31 31 31 30 29 29
48 47 47 47 48 47 47 46 45 46 45 46 46 45 44 44 44 44 44 44 45 44 45 43 43 39 37 37 37 37 36 36 36 36 35 34 31 29 28 30 31 31 31 31 31 31 31 32 33 34 34 34 34 34 34 33 33 33 33 34 32 32 31 31 31 32 32 31 32 32 33 33 33 32 32 32 32 32 32 32 32 31 30 30 30
46 46 46 46 48 46 47 46 46 45 44 45 45 45 44 43 43 43 42 43 43 42 41 41 42 40 37 37 36 37 36 36 36 36 35 35 34 32 31 33 34 34 33 33 32 33 33 33 33 33 34 34 34 34 34 34 34 34 33 33 32 32 32 32 32 32 32 31 32 32 32 32 32 32 32 32 32 32 32 32 31 30 30 30 30